Northolt, United Kingdom

10:45 PM BST on July 25, 2017 (GMT +0100)
Northolt Air Base

Weather History for EGWU - May, 2013

Change the Weather History Date:

Tuesday, May 14, 2013

  Actual Average Record
Temperature  
Mean Temperature 48 °F -  
Max Temperature 52 °F 64 °F 77 °F (2000)
Min Temperature 44 °F 49 °F 39 °F (1997)
Degree Days  
Heating Degree Days 17    
Moisture  
Dew Point 41 °F    
Average Humidity 76    
Maximum Humidity 93    
Minimum Humidity 48    
Precipitation  
Precipitation 0.20 in - - ()
Sea Level Pressure  
Sea Level Pressure 29.60 in    
Wind  
Wind Speed 10 mph ()    
Max Wind Speed 20 mph    
Max Gust Speed 32 mph    
Visibility 6.8 miles    
Events Rain    
Averages and records for this station are not official NWS values.
T = Trace of Precipitation, MM = Missing Value Source: Averaged Metar Reports

Daily Weather History Graph

Daily Weather History Graph

Search for Another Location

Airport or City:

Trip Planner

Search our weather history database for the weather conditions in past years. The results will help you decide how hot, cold, wet, or windy it might be!

Date:

Astronomy

May. 14, 2013 Rise Set
Actual Time 5:11 AM BST 8:45 PM BST
Civil Twilight 4:29 AM BST 9:27 PM BST
Nautical Twilight 3:33 AM BST 10:24 PM BST
Astronomical Twilight 2:11 AM BST 11:48 PM BST
Moon 8:37 AM BST (5/14) No Moon Set
Length of Visible Light 16h 57m
Length of Day
15h 34m
Waxing Crescent, 17% of the Moon is Illuminated
May 14
Waxing Crescent
May 18
First Quarter
May 25
Full
May 31
Last Quarter
Jun 8
New

Hourly Weather History & Observations

Time (BST) Temp. Windchill Dew Point Humidity Pressure Visibility Wind Dir Wind Speed Gust Speed Precip Events Conditions
12:50 AM 46 °F - 37 °F 62% 29.82 in 22 mi WSW 10.4 mph - -   Overcast
12:50 AM 46.4 °F 41.5 °F 37.4 °F 71% 29.80 in 6.2 mi WSW 10.4 mph - N/A   Overcast
1:50 AM 44.6 °F 38.8 °F 37.4 °F 76% 29.80 in 6.2 mi WSW 11.5 mph - N/A   Scattered Clouds
2:50 AM 44.6 °F 39.2 °F 37.4 °F 76% 29.80 in 6.2 mi WSW 10.4 mph - N/A   Mostly Cloudy
3:50 AM 45 °F - 38 °F 69% 29.79 in 18 mi WSW 8.1 mph - -   Mostly Cloudy
3:50 AM 44.6 °F 40.2 °F 37.4 °F 76% 29.77 in 6.2 mi WSW 8.1 mph - N/A   Mostly Cloudy
4:50 AM 44.6 °F 40.2 °F 39.2 °F 81% 29.77 in 6.2 mi WSW 8.1 mph - N/A   Mostly Cloudy
5:50 AM 44.6 °F 39.7 °F 39.2 °F 81% 29.74 in 6.2 mi WSW 9.2 mph - N/A   Mostly Cloudy
6:50 AM 46 °F - 39 °F 67% 29.75 in 12 mi WSW 10.4 mph - -   Scattered Clouds
6:50 AM 46.4 °F 41.5 °F 39.2 °F 76% 29.74 in 6.2 mi WSW 10.4 mph - N/A   Mostly Cloudy
7:50 AM 48.2 °F - 39.2 °F 71% 29.74 in 6.2 mi WSW 11.5 mph - N/A   Mostly Cloudy
8:50 AM 50.0 °F - 37.4 °F 62% 29.71 in 6.2 mi WSW 11.5 mph - N/A   Mostly Cloudy
9:50 AM 52 °F - 38 °F 48% 29.71 in 16 mi SW 11.5 mph - -   Overcast
9:50 AM 51.8 °F - 39.2 °F 62% 29.71 in 6.2 mi SW 11.5 mph - N/A   Mostly Cloudy
10:50 AM 51.8 °F - 35.6 °F 54% 29.68 in 6.2 mi WSW 13.8 mph - N/A Rain Light Rain
11:50 AM 48.2 °F - 41.0 °F 76% 29.65 in 6.2 mi SW 15.0 mph - N/A Rain Light Rain
12:50 PM 51 °F - 39 °F 54% 29.64 in 12 mi WSW 12.7 mph - - Rain Light Rain
12:50 PM 51.8 °F - 39.2 °F 62% 29.62 in 6.2 mi WSW 12.7 mph - N/A Rain Light Rain
1:50 PM 50.0 °F - 44.6 °F 82% 29.59 in 5.0 mi SSW 12.7 mph - N/A Rain Light Rain
2:50 PM 48.2 °F - 42.8 °F 82% 29.59 in 6.2 mi SSW 15.0 mph - N/A Rain Light Rain
3:50 PM 48 °F - 44 °F 81% 29.57 in 6 mi SSW 10.4 mph - - Rain Light Rain
3:50 PM 48.2 °F - 44.6 °F 87% 29.56 in 6.2 mi SSW 10.4 mph - N/A Rain Light Rain
4:50 PM 48.2 °F - 44.6 °F 87% 29.53 in 6.2 mi South 9.2 mph - N/A Rain Light Rain
5:50 PM 48.2 °F - 44.6 °F 87% 29.47 in 5.0 mi SSE 8.1 mph - N/A Rain Light Rain
6:50 PM 48 °F - 45 °F 86% 29.46 in 5 mi SE 10.4 mph - - Rain Light Rain
6:50 PM 48.2 °F - 44.6 °F 87% 29.44 in 5.0 mi SE 10.4 mph - N/A Rain Light Rain
7:50 PM 48.2 °F - 46.4 °F 93% 29.39 in 3.7 mi SE 10.4 mph - N/A Rain Light Rain
8:50 PM 48.2 °F - 46.4 °F 93% 29.36 in 3.7 mi SE 11.5 mph - N/A Rain Light Rain
9:50 PM 48 °F - 46 °F 91% 29.30 in 5 mi SE 16.1 mph - - Rain Light Rain
9:50 PM 48.2 °F - 46.4 °F 93% 29.30 in 5.0 mi SE 16.1 mph - N/A Rain Light Rain
10:50 PM 48.2 °F - 44.6 °F 87% 29.24 in 5.0 mi South 19.6 mph 32.2 mph N/A Rain Light Rain
11:50 PM 46.4 °F 40.1 °F 41.0 °F 81% 29.21 in 6.2 mi South 15.0 mph 27.6 mph N/A   Mostly Cloudy